Time,TemperatureF,DewpointF,PressureIn,WindDirection,WindDirectionDegrees,WindSpeedMPH,WindSpeedGustMPH,Humidity,HourlyPrecipIn,Conditions,Clouds,dailyrainin,SoftwareType,DateUTC
2013-06-18 00:00:00,81.2,74.4,29.95,West,264,0.0,14.0,80,0.00,,,0.00,Wunderground v.1.15,2013-06-18 04:00:00,
2013-06-18 00:05:00,81.2,74.4,29.95,West,264,0.0,14.0,80,0.00,,,0.00,Wunderground v.1.15,2013-06-18 04:05:00,
2013-06-18 00:15:00,81.4,74.6,29.95,West,264,0.0,0.0,80,0.00,,,0.00,Wunderground v.1.15,2013-06-18 04:15:00,
2013-06-18 00:20:00,81.4,74.6,29.95,West,264,0.0,0.0,80,0.00,,,0.00,Wunderground v.1.15,2013-06-18 04:20:00,
2013-06-18 00:25:00,81.2,74.4,29.95,West,264,0.0,0.0,80,0.00,,,0.00,Wunderground v.1.15,2013-06-18 04:25:00,
2013-06-18 00:35:00,81.1,74.7,29.95,West,264,0.0,0.0,81,0.00,,,0.00,Wunderground v.1.15,2013-06-18 04:35:00,
2013-06-18 00:40:00,80.9,74.5,29.95,West,264,0.0,0.0,81,0.00,,,0.00,Wunderground v.1.15,2013-06-18 04:40:00,
2013-06-18 00:45:00,80.9,74.5,29.95,West,264,0.0,0.0,81,0.00,,,0.00,Wunderground v.1.15,2013-06-18 04:45:00,
2013-06-18 00:55:00,80.9,74.5,29.95,West,264,0.0,0.0,81,0.00,,,0.00,Wunderground v.1.15,2013-06-18 04:55:00,
2013-06-18 01:05:00,80.7,74.7,29.95,West,264,0.0,0.0,82,0.00,,,0.00,Wunderground v.1.15,2013-06-18 05:05:00,
2013-06-18 01:15:00,80.3,74.7,29.94,West,261,0.0,0.0,83,0.00,,,0.00,Wunderground v.1.15,2013-06-18 05:15:00,
2013-06-18 01:20:00,80.3,74.7,29.94,West,261,0.0,0.0,83,0.00,,,0.00,Wunderground v.1.15,2013-06-18 05:20:00,
2013-06-18 01:30:00,80.3,74.7,29.94,West,261,0.0,0.0,83,0.00,,,0.00,Wunderground v.1.15,2013-06-18 05:30:00,
2013-06-18 01:40:00,80.5,74.9,29.94,West,261,0.0,0.0,83,0.00,,,0.00,Wunderground v.1.15,2013-06-18 05:40:00,
2013-06-18 01:50:00,80.5,74.9,29.93,West,261,0.0,0.0,83,0.00,,,0.00,Wunderground v.1.15,2013-06-18 05:50:00,
2013-06-18 02:00:00,80.1,74.8,29.92,West,270,0.0,0.0,84,0.00,,,0.00,Wunderground v.1.15,2013-06-18 06:00:00,
2013-06-18 02:10:00,80.1,74.8,29.92,West,270,0.0,0.0,84,0.00,,,0.00,Wunderground v.1.15,2013-06-18 06:10:00,
2013-06-18 02:15:00,79.9,74.6,29.92,West,270,0.0,0.0,84,0.00,,,0.00,Wunderground v.1.15,2013-06-18 06:15:00,
2013-06-18 02:25:00,79.6,74.7,29.92,West,270,0.0,0.0,85,0.00,,,0.00,Wunderground v.1.15,2013-06-18 06:25:00,
2013-06-18 02:35:00,79.2,74.6,29.92,West,270,0.0,0.0,86,0.00,,,0.00,Wunderground v.1.15,2013-06-18 06:35:00,
2013-06-18 02:45:00,79.0,74.5,29.92,West,270,0.0,0.0,86,0.00,,,0.00,Wunderground v.1.15,2013-06-18 06:45:00,
2013-06-18 02:55:00,78.6,74.4,29.92,West,270,0.0,0.0,87,0.00,,,0.00,Wunderground v.1.15,2013-06-18 06:55:00,
2013-06-18 03:05:00,78.8,74.6,29.92,West,269,0.0,0.0,87,0.00,,,0.00,Wunderground v.1.15,2013-06-18 07:05:00,
2013-06-18 03:15:00,78.8,74.6,29.92,West,268,0.0,0.0,87,0.00,,,0.00,Wunderground v.1.15,2013-06-18 07:15:00,
2013-06-18 03:25:00,78.6,74.4,29.92,West,268,0.0,0.0,87,0.00,,,0.00,Wunderground v.1.15,2013-06-18 07:25:00,
2013-06-18 03:35:00,78.5,74.6,29.91,West,269,0.0,0.0,88,0.00,,,0.00,Wunderground v.1.15,2013-06-18 07:35:00,
2013-06-18 03:45:00,78.3,74.5,29.90,West,268,0.0,0.0,88,0.00,,,0.00,Wunderground v.1.15,2013-06-18 07:45:00,
2013-06-18 03:55:00,78.1,74.3,29.90,West,269,0.0,0.0,88,0.00,,,0.00,Wunderground v.1.15,2013-06-18 07:55:00,
2013-06-18 04:05:00,78.1,74.6,29.90,West,268,0.0,0.0,89,0.00,,,0.00,Wunderground v.1.15,2013-06-18 08:05:00,
2013-06-18 04:15:00,77.9,74.4,29.90,West,268,0.0,0.0,89,0.00,,,0.00,Wunderground v.1.15,2013-06-18 08:15:00,
2013-06-18 04:25:00,77.9,74.7,29.90,West,268,0.0,0.0,90,0.00,,,0.00,Wunderground v.1.15,2013-06-18 08:25:00,
2013-06-18 04:35:00,77.7,74.5,29.90,West,269,0.0,0.0,90,0.00,,,0.00,Wunderground v.1.15,2013-06-18 08:35:00,
2013-06-18 04:45:00,77.7,74.5,29.90,West,268,0.0,0.0,90,0.00,,,0.00,Wunderground v.1.15,2013-06-18 08:45:00,
2013-06-18 04:55:00,77.7,74.9,29.90,West,268,0.0,0.0,91,0.00,,,0.00,Wunderground v.1.15,2013-06-18 08:55:00,
2013-06-18 05:05:00,77.7,74.9,29.90,West,268,0.0,0.0,91,0.00,,,0.00,Wunderground v.1.15,2013-06-18 09:05:00,
2013-06-18 05:15:00,77.6,75.1,29.90,West,268,0.0,0.0,92,0.00,,,0.00,Wunderground v.1.15,2013-06-18 09:15:00,
2013-06-18 05:25:00,77.6,75.1,29.90,West,259,0.0,0.0,92,0.00,,,0.00,Wunderground v.1.15,2013-06-18 09:25:00,
2013-06-18 05:35:00,77.9,75.4,29.91,SE,133,1.0,1.0,92,0.00,,,0.00,Wunderground v.1.15,2013-06-18 09:35:00,
2013-06-18 05:45:00,78.1,75.6,29.91,SE,132,0.0,0.0,92,0.00,,,0.00,Wunderground v.1.15,2013-06-18 09:45:00,
2013-06-18 05:55:00,77.9,75.4,29.91,SE,132,0.0,0.0,92,0.00,,,0.00,Wunderground v.1.15,2013-06-18 09:55:00,
2013-06-18 06:05:00,77.7,75.5,29.91,SE,132,0.0,0.0,93,0.00,,,0.00,Wunderground v.1.15,2013-06-18 10:05:00,
2013-06-18 06:10:00,77.7,75.5,29.91,SE,132,0.0,0.0,93,0.00,,,0.00,Wunderground v.1.15,2013-06-18 10:10:00,
2013-06-18 06:15:00,77.7,75.5,29.91,SE,132,0.0,0.0,93,0.00,,,0.00,Wunderground v.1.15,2013-06-18 10:15:00,
2013-06-18 06:25:00,77.6,75.4,29.91,SE,132,0.0,0.0,93,0.00,,,0.00,Wunderground v.1.15,2013-06-18 10:25:00,
2013-06-18 06:35:00,77.6,75.4,29.91,SE,132,0.0,0.0,93,0.00,,,0.00,Wunderground v.1.15,2013-06-18 10:35:00,
2013-06-18 06:45:00,77.4,75.2,29.92,SE,132,0.0,0.0,93,0.00,,,0.00,Wunderground v.1.15,2013-06-18 10:45:00,
2013-06-18 06:55:00,77.2,75.0,29.92,SE,132,0.0,0.0,93,0.00,,,0.00,Wunderground v.1.15,2013-06-18 10:55:00,
2013-06-18 07:00:00,77.4,75.2,29.92,SE,132,0.0,0.0,93,0.00,,,0.00,Wunderground v.1.15,2013-06-18 11:00:00,
2013-06-18 07:10:00,77.6,75.4,29.92,SE,132,0.0,0.0,93,0.00,,,0.00,Wunderground v.1.15,2013-06-18 11:10:00,
2013-06-18 07:20:00,77.7,75.5,29.93,SE,132,0.0,0.0,93,0.00,,,0.00,Wunderground v.1.15,2013-06-18 11:20:00,
2013-06-18 07:30:00,77.7,75.2,29.93,SE,132,0.0,0.0,92,0.00,,,0.00,Wunderground v.1.15,2013-06-18 11:30:00,
2013-06-18 07:35:00,77.7,75.2,29.93,SE,132,0.0,0.0,92,0.00,,,0.00,Wunderground v.1.15,2013-06-18 11:35:00,
2013-06-18 07:45:00,78.1,75.3,29.93,SE,139,0.0,0.0,91,0.00,,,0.00,Wunderground v.1.15,2013-06-18 11:45:00,
2013-06-18 07:55:00,78.6,75.1,29.93,ESE,109,1.0,1.0,89,0.00,,,0.00,Wunderground v.1.15,2013-06-18 11:55:00,
2013-06-18 08:05:00,79.2,75.0,29.93,SSE,153,1.0,1.0,87,0.00,,,0.00,Wunderground v.1.15,2013-06-18 12:05:00,
2013-06-18 08:15:00,79.9,75.0,29.94,East,94,1.0,4.0,85,0.00,,,0.00,Wunderground v.1.15,2013-06-18 12:15:00,
2013-06-18 08:20:00,80.3,75.0,29.94,ESE,115,3.0,3.0,84,0.00,,,0.00,Wunderground v.1.15,2013-06-18 12:20:00,
2013-06-18 08:30:00,80.7,75.1,29.94,SE,127,0.0,0.0,83,0.00,,,0.00,Wunderground v.1.15,2013-06-18 12:30:00,
2013-06-18 08:40:00,81.1,75.1,29.94,ESE,120,0.0,0.0,82,0.00,,,0.00,Wunderground v.1.15,2013-06-18 12:40:00,
2013-06-18 08:50:00,81.6,75.2,29.94,ESE,115,0.0,0.0,81,0.00,,,0.00,Wunderground v.1.15,2013-06-18 12:50:00,
2013-06-18 09:00:00,82.2,75.4,29.95,East,98,0.0,2.0,80,0.00,,,0.00,Wunderground v.1.15,2013-06-18 13:00:00,
2013-06-18 09:10:00,82.8,75.2,29.95,SE,145,1.0,1.0,78,0.00,,,0.00,Wunderground v.1.15,2013-06-18 13:10:00,
2013-06-18 09:20:00,83.4,75.4,29.95,ESE,115,0.0,0.0,77,0.00,,,0.00,Wunderground v.1.15,2013-06-18 13:20:00,
2013-06-18 09:30:00,84.0,75.6,29.95,East,91,0.0,0.0,76,0.00,,,0.00,Wunderground v.1.15,2013-06-18 13:30:00,
2013-06-18 09:40:00,84.3,75.1,29.95,SSW,192,0.0,0.0,74,0.00,,,0.00,Wunderground v.1.15,2013-06-18 13:40:00,
2013-06-18 09:50:00,84.1,74.9,29.95,SSE,166,0.0,0.0,74,0.00,,,0.00,Wunderground v.1.15,2013-06-18 13:50:00,
2013-06-18 10:00:00,85.1,75.5,29.94,SE,144,0.0,0.0,73,0.00,,,0.00,Wunderground v.1.15,2013-06-18 14:00:00,
2013-06-18 10:10:00,84.7,74.3,29.94,SSE,159,2.0,2.0,71,0.00,,,0.00,Wunderground v.1.15,2013-06-18 14:10:00,
2013-06-18 10:20:00,85.9,75.4,29.95,South,186,0.0,7.0,71,0.00,,,0.00,Wunderground v.1.15,2013-06-18 14:20:00,
2013-06-18 10:30:00,84.7,73.8,29.94,South,179,1.0,1.0,70,0.00,,,0.00,Wunderground v.1.15,2013-06-18 14:30:00,
2013-06-18 10:40:00,84.7,74.3,29.94,SE,134,2.0,2.0,71,0.00,,,0.00,Wunderground v.1.15,2013-06-18 14:40:00,
2013-06-18 10:50:00,85.9,73.2,29.94,SSE,150,3.0,7.0,66,0.00,,,0.00,Wunderground v.1.15,2013-06-18 14:50:00,
2013-06-18 11:00:00,86.5,73.8,29.94,WSW,240,1.0,1.0,66,0.00,,,0.00,Wunderground v.1.15,2013-06-18 15:00:00,
2013-06-18 11:10:00,85.9,71.8,29.94,SW,236,4.0,4.0,63,0.00,,,0.00,Wunderground v.1.15,2013-06-18 15:10:00,
2013-06-18 11:20:00,86.1,70.6,29.94,South,186,6.0,6.0,60,0.00,,,0.00,Wunderground v.1.15,2013-06-18 15:20:00,
2013-06-18 11:30:00,87.0,71.4,29.94,South,179,3.0,3.0,60,0.00,,,0.00,Wunderground v.1.15,2013-06-18 15:30:00,
2013-06-18 11:40:00,87.0,71.9,29.94,WNW,288,7.0,13.0,61,0.00,,,0.00,Wunderground v.1.15,2013-06-18 15:40:00,
2013-06-18 11:50:00,87.2,71.1,29.94,SW,218,5.0,12.0,59,0.00,,,0.00,Wunderground v.1.15,2013-06-18 15:50:00,
2013-06-18 12:00:00,87.0,71.4,29.94,SW,231,9.0,9.0,60,0.00,,,0.00,Wunderground v.1.15,2013-06-18 16:00:00,
2013-06-18 12:05:00,87.2,71.1,29.94,North,0,7.0,12.0,59,0.00,,,0.00,Wunderground v.1.15,2013-06-18 16:05:00,
2013-06-18 12:15:00,87.4,72.3,29.95,SSW,196,8.0,13.0,61,0.00,,,0.00,Wunderground v.1.15,2013-06-18 16:15:00,
2013-06-18 12:25:00,87.8,72.7,29.95,WSW,248,6.0,22.0,61,0.00,,,0.00,Wunderground v.1.15,2013-06-18 16:25:00,
2013-06-18 12:35:00,87.8,71.7,29.94,WSW,239,11.0,11.0,59,0.00,,,0.00,Wunderground v.1.15,2013-06-18 16:35:00,
2013-06-18 12:40:00,87.6,72.0,29.94,SW,217,10.0,10.0,60,0.00,,,0.00,Wunderground v.1.15,2013-06-18 16:40:00,
2013-06-18 12:50:00,87.8,71.2,29.94,SW,227,8.0,10.0,58,0.00,,,0.00,Wunderground v.1.15,2013-06-18 16:50:00,
2013-06-18 13:00:00,88.0,72.4,29.94,WSW,245,10.0,17.0,60,0.00,,,0.00,Wunderground v.1.15,2013-06-18 17:00:00,
2013-06-18 13:10:00,88.0,72.4,29.94,WSW,238,9.0,9.0,60,0.00,,,0.00,Wunderground v.1.15,2013-06-18 17:10:00,
2013-06-18 13:20:00,87.4,72.8,29.94,SW,231,9.0,9.0,62,0.00,,,0.00,Wunderground v.1.15,2013-06-18 17:20:00,
2013-06-18 13:30:00,88.0,72.9,29.93,SSW,210,6.0,18.0,61,0.00,,,0.00,Wunderground v.1.15,2013-06-18 17:30:00,
2013-06-18 13:40:00,88.2,71.6,29.93,SW,235,9.0,18.0,58,0.00,,,0.00,Wunderground v.1.15,2013-06-18 17:40:00,
2013-06-18 13:50:00,88.2,73.5,29.92,WSW,243,9.0,18.0,62,0.00,,,0.00,Wunderground v.1.15,2013-06-18 17:50:00,
2013-06-18 14:00:00,88.4,73.7,29.92,West,281,14.0,18.0,62,0.00,,,0.00,Wunderground v.1.15,2013-06-18 18:00:00,
2013-06-18 14:10:00,88.0,73.8,29.92,West,272,17.0,17.0,63,0.00,,,0.00,Wunderground v.1.15,2013-06-18 18:10:00,
2013-06-18 14:20:00,87.8,73.2,29.92,SW,232,19.0,19.0,62,0.00,,,0.00,Wunderground v.1.15,2013-06-18 18:20:00,
2013-06-18 14:30:00,88.0,75.7,29.92,WSW,240,16.0,16.0,67,0.00,,,0.00,Wunderground v.1.15,2013-06-18 18:30:00,
2013-06-18 14:35:00,87.8,74.6,29.92,West,277,15.0,18.0,65,0.00,,,0.00,Wunderground v.1.15,2013-06-18 18:35:00,
2013-06-18 14:45:00,87.8,76.4,29.91,WNW,288,13.0,18.0,69,0.00,,,0.00,Wunderground v.1.15,2013-06-18 18:45:00,
2013-06-18 14:55:00,87.6,73.9,29.91,WNW,285,13.0,18.0,64,0.00,,,0.00,Wunderground v.1.15,2013-06-18 18:55:00,
2013-06-18 15:05:00,87.8,74.6,29.91,SW,219,11.0,12.0,65,0.00,,,0.00,Wunderground v.1.15,2013-06-18 19:05:00,
2013-06-18 15:10:00,88.0,75.7,29.91,West,262,10.0,10.0,67,0.00,,,0.00,Wunderground v.1.15,2013-06-18 19:10:00,
2013-06-18 15:20:00,88.0,74.8,29.91,West,262,11.0,21.0,65,0.00,,,0.00,Wunderground v.1.15,2013-06-18 19:20:00,
2013-06-18 15:30:00,88.0,74.8,29.91,WSW,241,14.0,21.0,65,0.00,,,0.00,Wunderground v.1.15,2013-06-18 19:30:00,
2013-06-18 15:40:00,88.0,74.8,29.91,WSW,255,13.0,17.0,65,0.00,,,0.00,Wunderground v.1.15,2013-06-18 19:40:00,
2013-06-18 15:45:00,87.6,74.8,29.90,West,272,14.0,17.0,66,0.00,,,0.00,Wunderground v.1.15,2013-06-18 19:45:00,
2013-06-18 15:55:00,88.2,74.5,29.90,WNW,291,14.0,15.0,64,0.00,,,0.00,Wunderground v.1.15,2013-06-18 19:55:00,
2013-06-18 16:00:00,88.2,75.4,29.89,WSW,245,14.0,16.0,66,0.00,,,0.00,Wunderground v.1.15,2013-06-18 20:00:00,
2013-06-18 16:10:00,87.6,74.8,29.89,SW,229,14.0,21.0,66,0.00,,,0.00,Wunderground v.1.15,2013-06-18 20:10:00,
2013-06-18 16:20:00,87.8,74.6,29.89,West,274,14.0,21.0,65,0.00,,,0.00,Wunderground v.1.15,2013-06-18 20:20:00,
2013-06-18 16:25:00,87.4,74.2,29.89,West,274,14.0,21.0,65,0.00,,,0.00,Wunderground v.1.15,2013-06-18 20:25:00,
2013-06-18 16:35:00,87.8,74.6,29.88,SW,225,14.0,21.0,65,0.00,,,0.00,Wunderground v.1.15,2013-06-18 20:35:00,
2013-06-18 16:40:00,87.6,73.4,29.88,SSW,208,10.0,10.0,63,0.00,,,0.00,Wunderground v.1.15,2013-06-18 20:40:00,
2013-06-18 16:50:00,87.8,74.6,29.89,West,264,9.0,21.0,65,0.00,,,0.00,Wunderground v.1.15,2013-06-18 20:50:00,
2013-06-18 17:00:00,87.4,75.1,29.88,WNW,293,11.0,11.0,67,0.00,,,0.00,Wunderground v.1.15,2013-06-18 21:00:00,
2013-06-18 17:05:00,87.0,73.3,29.88,SW,217,10.0,21.0,64,0.00,,,0.00,Wunderground v.1.15,2013-06-18 21:05:00,
2013-06-18 17:15:00,87.6,76.2,29.88,West,262,8.0,21.0,69,0.00,,,0.00,Wunderground v.1.15,2013-06-18 21:15:00,
2013-06-18 17:20:00,87.6,75.3,29.88,West,266,9.0,21.0,67,0.00,,,0.00,Wunderground v.1.15,2013-06-18 21:20:00,
2013-06-18 17:30:00,87.8,75.9,29.88,West,266,11.0,21.0,68,0.00,,,0.00,Wunderground v.1.15,2013-06-18 21:30:00,
2013-06-18 17:40:00,86.7,75.3,29.88,WNW,293,18.0,18.0,69,0.00,,,0.00,Wunderground v.1.15,2013-06-18 21:40:00,
2013-06-18 17:45:00,87.0,76.0,29.87,West,272,17.0,23.0,70,0.00,,,0.00,Wunderground v.1.15,2013-06-18 21:45:00,
2013-06-18 17:55:00,87.2,75.8,29.87,WSW,248,11.0,21.0,69,0.00,,,0.00,Wunderground v.1.15,2013-06-18 21:55:00,
2013-06-18 18:00:00,87.4,76.0,29.87,West,269,11.0,11.0,69,0.00,,,0.00,Wunderground v.1.15,2013-06-18 22:00:00,
2013-06-18 18:10:00,86.7,76.6,29.87,WNW,290,15.0,16.0,72,0.00,,,0.00,Wunderground v.1.15,2013-06-18 22:10:00,
2013-06-18 18:20:00,86.3,75.8,29.86,West,261,13.0,13.0,71,0.00,,,0.00,Wunderground v.1.15,2013-06-18 22:20:00,
2013-06-18 18:30:00,86.1,74.7,29.86,WSW,248,12.0,12.0,69,0.00,,,0.00,Wunderground v.1.15,2013-06-18 22:30:00,
2013-06-18 18:35:00,86.5,75.5,29.86,West,276,8.0,21.0,70,0.00,,,0.00,Wunderground v.1.15,2013-06-18 22:35:00,
2013-06-18 18:45:00,86.7,75.7,29.86,WNW,283,11.0,21.0,70,0.00,,,0.00,Wunderground v.1.15,2013-06-18 22:45:00,
2013-06-18 18:55:00,86.3,75.4,29.86,West,276,13.0,21.0,70,0.00,,,0.00,Wunderground v.1.15,2013-06-18 22:55:00,
2013-06-18 19:00:00,86.3,75.4,29.86,West,278,13.0,17.0,70,0.00,,,0.00,Wunderground v.1.15,2013-06-18 23:00:00,
2013-06-18 19:10:00,85.9,75.4,29.86,West,271,13.0,13.0,71,0.00,,,0.00,Wunderground v.1.15,2013-06-18 23:10:00,
2013-06-18 19:15:00,85.7,75.2,29.86,WSW,258,11.0,21.0,71,0.00,,,0.00,Wunderground v.1.15,2013-06-18 23:15:00,
2013-06-18 19:25:00,85.5,75.4,29.86,West,276,11.0,21.0,72,0.00,,,0.00,Wunderground v.1.15,2013-06-18 23:25:00,
2013-06-18 19:35:00,85.3,75.2,29.87,WNW,285,8.0,21.0,72,0.00,,,0.00,Wunderground v.1.15,2013-06-18 23:35:00,
2013-06-18 19:45:00,85.1,75.5,29.88,West,266,9.0,21.0,73,0.00,,,0.00,Wunderground v.1.15,2013-06-18 23:45:00,
2013-06-18 19:50:00,84.9,75.3,29.88,West,264,7.0,21.0,73,0.00,,,0.00,Wunderground v.1.15,2013-06-18 23:50:00,
2013-06-18 20:00:00,84.5,74.9,29.88,SW,236,10.0,10.0,73,0.00,,,0.00,Wunderground v.1.15,2013-06-19 00:00:00,
2013-06-18 20:05:00,84.3,74.7,29.88,WSW,248,5.0,21.0,73,0.00,,,0.00,Wunderground v.1.15,2013-06-19 00:05:00,
2013-06-18 20:15:00,84.1,74.9,29.88,West,261,2.0,21.0,74,0.00,,,0.00,Wunderground v.1.15,2013-06-19 00:15:00,
2013-06-18 20:25:00,83.8,75.4,29.88,WSW,243,1.0,21.0,76,0.00,,,0.00,Wunderground v.1.15,2013-06-19 00:25:00,
2013-06-18 20:30:00,83.6,75.2,29.89,WSW,238,1.0,21.0,76,0.00,,,0.00,Wunderground v.1.15,2013-06-19 00:30:00,
2013-06-18 20:40:00,83.6,75.2,29.89,SW,218,1.0,1.0,76,0.00,,,0.00,Wunderground v.1.15,2013-06-19 00:40:00,
2013-06-18 20:45:00,83.4,75.4,29.89,SW,225,1.0,21.0,77,0.00,,,0.00,Wunderground v.1.15,2013-06-19 00:45:00,
2013-06-18 20:55:00,83.2,74.8,29.89,WSW,254,1.0,21.0,76,0.00,,,0.00,Wunderground v.1.15,2013-06-19 00:55:00,
2013-06-18 21:05:00,82.8,74.8,29.89,West,260,1.0,21.0,77,0.00,,,0.00,Wunderground v.1.15,2013-06-19 01:05:00,
2013-06-18 21:15:00,82.6,74.7,29.89,WSW,243,0.0,0.0,77,0.00,,,0.00,Wunderground v.1.15,2013-06-19 01:15:00,
2013-06-18 21:20:00,82.6,74.7,29.89,West,270,0.0,0.0,77,0.00,,,0.00,Wunderground v.1.15,2013-06-19 01:20:00,
2013-06-18 21:30:00,82.4,74.8,29.89,West,266,0.0,4.0,78,0.00,,,0.00,Wunderground v.1.15,2013-06-19 01:30:00,
2013-06-18 21:35:00,82.2,74.7,29.89,West,269,0.0,4.0,78,0.00,,,0.00,Wunderground v.1.15,2013-06-19 01:35:00,
2013-06-18 21:45:00,82.2,75.0,29.90,West,264,0.0,0.0,79,0.00,,,0.00,Wunderground v.1.15,2013-06-19 01:45:00,
2013-06-18 21:55:00,82.2,75.0,29.90,WSW,255,0.0,0.0,79,0.00,,,0.00,Wunderground v.1.15,2013-06-19 01:55:00,
2013-06-18 22:00:00,82.2,75.0,29.90,WSW,255,0.0,0.0,79,0.00,,,0.00,Wunderground v.1.15,2013-06-19 02:00:00,
2013-06-18 22:10:00,82.2,75.0,29.90,SSW,210,0.0,11.0,79,0.00,,,0.00,Wunderground v.1.15,2013-06-19 02:10:00,
2013-06-18 22:15:00,82.2,75.0,29.90,SSW,210,0.0,11.0,79,0.00,,,0.00,Wunderground v.1.15,2013-06-19 02:15:00,
2013-06-18 22:25:00,82.0,75.2,29.90,SW,214,0.0,11.0,80,0.00,,,0.00,Wunderground v.1.15,2013-06-19 02:25:00,
2013-06-18 22:35:00,81.8,75.0,29.91,West,274,0.0,11.0,80,0.00,,,0.00,Wunderground v.1.15,2013-06-19 02:35:00,
2013-06-18 22:40:00,81.8,75.4,29.91,West,267,0.0,11.0,81,0.00,,,0.00,Wunderground v.1.15,2013-06-19 02:40:00,
2013-06-18 22:50:00,81.6,75.2,29.91,West,262,0.0,11.0,81,0.00,,,0.00,Wunderground v.1.15,2013-06-19 02:50:00,
2013-06-18 22:55:00,81.6,75.2,29.91,West,262,0.0,11.0,81,0.00,,,0.00,Wunderground v.1.15,2013-06-19 02:55:00,
2013-06-18 23:05:00,81.6,75.2,29.91,WSW,257,1.0,11.0,81,0.00,,,0.00,Wunderground v.1.15,2013-06-19 03:05:00,
2013-06-18 23:15:00,81.8,75.4,29.91,SW,236,0.0,11.0,81,0.00,,,0.00,Wunderground v.1.15,2013-06-19 03:15:00,
2013-06-18 23:20:00,81.8,75.4,29.91,SW,236,0.0,11.0,81,0.00,,,0.00,Wunderground v.1.15,2013-06-19 03:20:00,
2013-06-18 23:30:00,81.8,75.4,29.91,SW,236,0.0,11.0,81,0.00,,,0.00,Wunderground v.1.15,2013-06-19 03:30:00,
2013-06-18 23:40:00,81.8,75.4,29.91,West,280,0.0,11.0,81,0.00,,,0.00,Wunderground v.1.15,2013-06-19 03:40:00,
2013-06-18 23:45:00,82.0,75.6,29.91,West,280,0.0,11.0,81,0.00,,,0.00,Wunderground v.1.15,2013-06-19 03:45:00,
2013-06-18 23:55:00,82.0,75.6,29.91,West,280,0.0,11.0,81,0.00,,,0.00,Wunderground v.1.15,2013-06-19 03:55:00,